Content
SEND FEEDBACK

Daily
Averages
Monthly
Summary
United States of America

WILMINGTON, NORTH CAROLINA


Home > North America > United States > North Carolina
Elevation: 72 feet     Latitude: 34 16N     Longitude: 077 54W

WEATHER
 
SELECT A DAY
Number of Records: 209,081;   Date Range: 1/1/95 - 9/16/14
 
SHARE

PRINT THIS DATA

[ ← Previous Day ]
WEATHER ALMANAC - MARCH 5, 2013
[ Next Day → ]
[ °C ]   °F
Weather ElementAverageHighLow
Temperature53.7 °F64.9 °F (12:53 pm)33.1 °F (6:53 am)
Dewpoint37.4 °F55 °F (11:53 pm)26.1 °F (4:53 am)
Humidity56.5 %87 % (11:53 pm)32 % (12:53 pm)
Barometer29.96 in30.13 in (5:53 am)29.64 in (11:53 pm)
Wind Speed10.1 mph18.4 mph (10:53 pm)
Wind Gust27.6 mph (11:53 pm)
Weather ElementAverage
Visibility9.8 mi
Wind DirectionSSE (166.8 °)

Weather ElementTotal
Precipitation0.07 in
Heating Degree Days16 (Base 65)
Averaged from 22 records on March 5, 2013
WEATHER CONDITIONS BREAKOUT
WIND DIRECTION BREAKOUT
WEATHER BY HOUR - MARCH 5, 2013
[ °C ]   °F
Local TimeTemperatureDewpointHumidityBarometerVisibilityWind DirectionWind SpeedGust SpeedPrecipitationEventsConditions
2:53 AM37.0 °F27.0 °F67 %30.09 in10.0 miCalmClear
3:53 AM37.0 °F28.9 °F73 %30.10 in10.0 miCalmClear
4:53 AM37.9 °F26.1 °F62 %30.12 in10.0 miSSW (210°)3.5 mphClear
5:53 AM36.0 °F28.0 °F73 %30.13 in10.0 miCalmClear
6:53 AM33.1 °F28.0 °F82 %30.12 in10.0 miCalmClear
7:53 AM44.6 °F32.0 °F61 %30.11 in10.0 miSSW (210°)4.6 mphClear
8:53 AM50.0 °F30.9 °F48 %30.12 in10.0 miSW (220°)8.1 mphClear
9:53 AM57.0 °F34.0 °F42 %30.09 in10.0 miSW (220°)11.5 mph21.9 mphClear
10:53 AM62.1 °F36.0 °F38 %30.06 in10.0 miSouth (190°)9.2 mph17.3 mphClear
11:53 AM63.0 °F36.0 °F37 %30.03 in10.0 miSouth (190°)16.1 mphClear
12:53 PM64.9 °F34.0 °F32 %29.99 in10.0 miSSW (210°)15.0 mph23.0 mphClear
1:53 PM63.0 °F34.0 °F34 %29.96 in10.0 miSSW (210°)11.5 mph25.3 mphMostly Cloudy
2:53 PM59.0 °F37.9 °F46 %29.95 in10.0 miSW (220°)13.8 mph23.0 mph0.00 inRainLight Rain
3:53 PM60.1 °F39.0 °F46 %29.92 in10.0 miSouth (190°)11.5 mph0.00 inOvercast
4:53 PM60.1 °F39.0 °F46 %29.89 in10.0 miSSW (210°)12.7 mph24.2 mphClear
5:53 PM59.0 °F39.9 °F49 %29.87 in10.0 miSSW (210°)16.1 mph24.2 mphOvercast
6:53 PM57.9 °F44.1 °F60 %29.85 in10.0 miSSW (200°)16.1 mph23.0 mphMostly Cloudy
7:53 PM57.9 °F44.1 °F60 %29.81 in10.0 miSSW (200°)12.7 mph23.0 mph0.00 inOvercast
8:53 PM59.0 °F48.0 °F67 %29.75 in10.0 miSouth (190°)12.7 mphMostly Cloudy
9:53 PM61.0 °F50.0 °F67 %29.73 in10.0 miSouth (190°)13.8 mphOvercast
10:53 PM63.0 °F51.1 °F65 %29.68 in10.0 miSSW (200°)18.4 mph25.3 mph0.00 inRainLight Rain
11:53 PM59.0 °F55.0 °F87 %29.64 in6.0 miSSW (200°)15.0 mph27.6 mph0.07 inRainLight Rain
Hourly data recorded from KILM, located miles away from Wilmington, North Carolina







STORIES FROM OUR PARTNERS